Location: Newark
(49.4900°N, 20.6656°E)
Time: 08:18:04
(UTC+00:00)

X-37B - Visible Passes

Search period start: 20 September 2020 00:00
Search period end: 30 September 2020 00:00
Orbit: 386 x 387 km, 45.0° (Epoch: 18 September)

Date Brightness Start Highest point End Pass type
(mag) Time Alt. Az. Time Alt. Az. Time Alt. Az.
20 Sep 3.7 01:33:17 11° ESE 01:33:17 11° ESE 01:33:26 10° ESE visible
20 Sep 1.6 03:05:33 23° SW 03:06:46 31° S 03:09:38 10° SE visible
21 Sep 2.5 02:09:45 23° SE 02:09:45 23° SE 02:11:16 10° ESE visible
21 Sep 2.4 03:42:06 10° WSW 03:44:28 19° SSW 03:46:49 10° SSE visible
22 Sep 2.0 02:46:20 25° S 02:46:20 25° S 02:48:46 10° SE visible
23 Sep 2.7 03:23:01 13° SW 03:23:40 14° SSW 03:25:21 10° S visible
24 Sep 3.3 02:27:32 11° SSE 02:27:32 11° SSE 02:27:41 10° SSE visible
